Regional Weather Roundup
Issued by NWS

Home | Current Version | Previous Version | Graphics & Text | Print | Product List | Glossary On
Versions: 1 2 3 4 5 6 7 8 9 10 11 12 13 14 15 16 17 18 19 20 21 22 23 24 25 26 27 28
000
ASUS45 KTFX 170110
RWRMT
MONTANA REGIONAL WEATHER ROUNDUP
NATIONAL WEATHER SERVICE GREAT FALLS MT
600 PM MST TUE JAN 16 2018

NOTE: "FAIR" INDICATES FEW OR NO CLOUDS BELOW 12000 FEET WITH NO
SIGNIFICANT WEATHER AND/OR OBSTRUCTIONS TO VISIBILITY.

MTZ001>007-043-170200-
WEST OF THE DIVIDE

CITY           SKY/WX    TMP DP  RH WIND       PRES   REMARKS
KALISPELL      MOCLDY    28  26  92 CALM      30.31R
MISSOULA       CLOUDY    34  26  72 N3        30.29R
BUTTE          CLOUDY    25  17  72 CALM      30.25R
MULLAN PASS    LGT SNOW  29  28  96 SW6       30.23R FOG     WCI  23
ANACONDA         N/A     25  19  80 CALM      30.25S
DEER LODGE       N/A     21  19  93 CALM      30.28S
EUREKA           N/A     34  27  75 MISG      30.27R
HAMILTON         N/A     34  28  80 S3        30.29R
PLAINS           N/A     34  24  67 CALM      30.29
RONAN            N/A     30  28  93 CALM      30.33R
$$

MTZ008-052>055-170200-
SOUTHWEST MONTANA

CITY           SKY/WX    TMP DP  RH WIND       PRES   REMARKS
BOZEMAN        FAIR      19  14  81 CALM      30.26R
DILLON         CLOUDY    33  19  56 S3        30.23S
ENNIS          PTCLDY    30  19  64 S10       30.29R WCI  21
W YELLOWSTONE  FAIR      10   9  92 CALM      30.30R
THREE FORKS      N/A     23  17  78 CALM      30.22S
TWIN BRIDGES     N/A     30  17  58 CALM      30.20
$$

MTZ009-010-012-014-046-048-049-054-170200-
EAST SLOPES AND CENTRAL MONTANA

CITY           SKY/WX    TMP DP  RH WIND       PRES   REMARKS
CUT BANK       FAIR      39  29  67 SW24G32   30.04R WCI  28
GREAT FALLS    FAIR      38  25  59 SW17G28   30.09R WCI  28
MALMSTROM AFB  FAIR      37  28  68 SW13      30.09S WCI  29
HELENA         FAIR      19  15  84 CALM      30.26R
AUGUSTA        FAIR      42  28  58 W26G35    30.09R
BOWMANS CRNR   FAIR      31  22  68 S18       30.10R WCI  19
CHOTEAU          N/A     41  28  60 W12       30.09R
FAIRFIELD      FAIR      39  27  62 S14       30.07S WCI  31
POWER          FAIR      36  25  64 SW14      30.08R WCI  27
RAYNESFORD     FAIR      42  24  49 CALM      30.11R
ULM            FAIR      38  26  61 SW13      30.12R WCI  30
WHITE SULPHUR    N/A      9   5  85 SE5       30.20R
$$

MTZ011-013-016-021-045-047-050-051-170200-
NORTH CENTRAL MONTANA

CITY           SKY/WX    TMP DP  RH WIND       PRES   REMARKS
HAVRE          FAIR      -8 -13  78 NW7       30.11F WCI -23
LEWISTOWN      FAIR      27  16  63 S5        30.09R
N BAR RANCH    FAIR      37   5  25 CALM      30.08S
CHINOOK          N/A     -8 -15  71 CALM      30.15S
DENTON         FAIR      29  16  58 MISG      30.04S
GEYSER         FAIR      38  26  60 W16       30.07R WCI  29
GRASS RANGE    FAIR      36  14  40 W16       30.03R WCI  26
STANFORD       FAIR      37  24  59 W14       30.08R WCI  29
WINIFRED       FAIR      32  15  48 W8        30.07R WCI  25
$$

MTZ017>020-022>027-061-062-170200-
NORTHEAST MONTANA

CITY           SKY/WX    TMP DP  RH WIND       PRES   REMARKS
GLASGOW        FAIR       6  -1  73 SE12      30.10F WCI  -9
GLENDIVE       FAIR       6  -2  69 S9        30.19F WCI  -8
JORDAN           N/A      6   0  76 CALM      30.09F
MALTA          CLEAR    -11 -17  77 SW5       30.16F
SIDNEY         FAIR       1  -6  72 SW10      30.21F WCI -15
WOLF POINT     FAIR       1  -7  68 NE3       30.16F
PLENTYWOOD       N/A      1  -6  71 CALM      30.12F
POPLAR           N/A      0  -9  65 N6        30.16F WCI -12
$$

MTZ028>42-056>058-170200-
SOUTHCENTRAL AND SOUTHEAST MONTANA

CITY           SKY/WX    TMP DP  RH WIND       PRES   REMARKS
BAKER          FAIR       5  -3  69 SE8       30.18F WCI  -8
BILLINGS       FAIR      29  10  45 SW15      30.13R WCI  18
LIVINGSTON     FAIR      26  16  65 W9        30.20R WCI  17
MILES CITY     FAIR      -4  -9  79 S9        30.17F WCI -20
BIG TIMBER     CLEAR     32  14  47 SW16      30.16S WCI  21
EKALAKA          N/A     26   3  37 SE7       30.10  WCI  18
FORSYTH          N/A     -2  -6  84 NW5       30.16F
HARLOWTON      FAIR      33  19  56 W28       30.10S WCI  20
LAUREL           N/A     32   9  37 SW22G28   30.14S WCI  19
$$

REGIONAL REPORTS...DAKOTAS

CITY           SKY/WX    TMP DP  RH WIND       PRES   REMARKS
WILLISTON      FAIR       5  -4  66 S5        30.20F
MINOT          FAIR      14  -2  49 S16       30.21F WCI  -2
DICKINSON      FAIR      11  -2  56 S17       30.18F WCI  -6
BEACH          FAIR      10  -2  56 S13       30.20F WCI  -5
CROSBY         FAIR       9  -2  61 S20       30.14F WCI -11
TIOGA          FAIR       7  -4  61 MISG      30.18F
WATFORD CITY   FAIR       9  -2  61 CALM      30.20F
BISMARCK       FAIR       4  -5  66 E3        30.35F
GRAND FORKS    FAIR       5  -2  72 S17       30.41F WCI -14
FARGO          MOCLDY     6  -3  66 S14       30.50F WCI -11
BUFFALO SD       N/A      2  -5  72 S10       30.16F WCI -14
RAPID CITY     FAIR      18   6  59 SE8       30.25F WCI   8
$$

REGIONAL REPORTS...WYOMING/IDAHO/WASHINGTON

CITY           SKY/WX    TMP DP  RH WIND       PRES   REMARKS
GILLETTE         N/A     23  13  65 S15       30.17F WCI  10
SHERIDAN       FAIR       7   1  76 S6        30.15F WCI  -3
BUFFALO WY     FAIR      29  15  56 SE5       30.13F
CODY           FAIR      22  15  75 S3        30.17F
YELLOWSTONE LA   N/A      6   3  87 CALM      30.30F
IDAHO FALLS    FAIR      32  27  81 N3        30.31S
SALMON         FAIR      29  25  85 CALM      30.37R
BOISE          CLOUDY    42  35  76 NW6       30.36R
SPOKANE        FOG       35  35 100 NE7       30.30R VSB 1/2 WCI  29
$$

REGIONAL REPORTS...ALBERTA

CITY           SKY/WX    TMP DP  RH WIND       PRES   REMARKS
CALGARY        PTCLDY    46  25  42 W12G20    29.81F
CARDSTON         N/A     41  25  52 MISG        N/A
EDMONTON       CLEAR     16   9  73 CALM      29.77F
FORT MCMURRAY  CLEAR     14   7  73 SE6       29.75F WCI   5
HIGH LEVEL     CLEAR     12   9  85 S6        29.70F WCI   3
LETHBRIDGE     PTCLDY    37  30  75 W18       29.98R WCI  27
LLOYDMINSTER   PTCLDY    12   7  79 S8        29.79F WCI   1
MEDICINE HAT   PTCLDY    27  19  74 SW17G23   29.94S WCI  14
MILK RIVER       N/A     41  32  70 W28G37      N/A
ONEFOUR          N/A     -2  -6  84 E8          N/A  WCI -17
PEACE RIVER    PTCLDY     7   3  85 SW5       29.78S
PINCHER CREEK  CLOUDY    39  27  60 W32G40    30.00R WCI  27
WATERTON GATE    N/A     41  23  48 SW23G40     N/A
$$

REGIONAL REPORTS...SASKATCHEWAN

CITY           SKY/WX    TMP DP  RH WIND       PRES   REMARKS
CORONACH         N/A      7   0  72 E3          N/A
CYPRESS HILLS    N/A     23  12  63 SW6         N/A  WCI  16
ESTEVAN        PTCLDY    10  -2  56 S13       30.14F WCI  -5
MOOSE JAW        N/A     14   3  62 S3          N/A
PRINCE ALBERT  CLEAR      5  -2  72 CALM      29.90F
REGINA         CLEAR      7   0  72 SE12      30.03F WCI  -9
ROCKGLEN         N/A     14   3  62 SW15        N/A  WCI  -1
SASKATOON      CLEAR     16   5  62 S6        29.92F WCI   7
SWIFT CURRENT  CLEAR     23  10  58 SW21G26   29.93S WCI   8
VAL MARIE        N/A     -9 -15  77 CALM        N/A
$$




USA.gov is the U.S. government's official web portal to all federal, state and local government web resources and services.